Showing default

ENMAP, 52159

Orbit data source: Space-Track

ENMAP, 52159 is a payload satellite owned by DLR (DE) in SSO that was launched on Fri, 01 Apr 2022 UTC via an FALCON 9 launch vehicle from the Air Force Eastern Test Range (AFETR). Payload-class satellites include a variety of spacecraft equipped with specific instruments for various scientific and technological missions. These include communications satellites like Starlink; space stations such as the ISS; scientific satellites like the Hubble; Earth observation satellites from companies like Planet Labs, Umbra, and HawkEye 360; GPS; miniature CubeSats for education and research; and military/defense satellites.

Loading next visibility...
Identifier
52159, 2022-033C
Orbit
SSO
Country
Flag of DEDE / GER
Related business
Manufacturer
KTHR/OHB
Mission
Operational Civil Imaging
Bus & Motor
ENMAP, AOCS
Mass
916 kg wet, ~857 kg dry
Launch date (UTC)
2022-04-01 (4 years ago)
Launch vehicle
FALCON 9
Launch site
Air Force Eastern Test Range (AFETR)
Object type
Payload
Rocket body
Debris
Shape & HBR
Box + 1 Pan, 2.0 m
Radar Cross Section
5.352 m², Large (>1 m²)

Expand to show TLE details & history
Last TLE update: 11 hours ago

TLE from 11 hours ago
0 ENMAP
1 52159U 22033C   25286.97707065  .00000820  00000-0  12958-3 0  9994
2 52159  97.9779   7.7552 0001341  77.3259 282.8100 14.74934549190360
Epoch: 2025-10-13T23:26Z
TLE epoch observation values (Epoch: 2025-10-13T23:26:58.904Z)
Latitude
0.00002°
Longitude
-6.76235°
Altitude
648.163 km
Speed
7.534 km/s
True Right ascension
00h 31m 01s
True Declination
0° 00' 00"
Sunlit
Object was in full shadow at epoch
Visualization orbit readout
Latitude
Unknown
Longitude
Unknown
Altitude
Unknown
Speed
Unknown
Apparent Right ascension
Unknown
Apparent Declination
Unknown
Sunlit
N/A
Visualization observer readout
Local Sidereal Time
04:48:29
Azimuth
Unknown
Elevation
Unknown
Doppler factor
Unknown
Orbital elements
Apogee altitude
643.352 km
Perigee altitude
641.469 km
Semi-major axis
7,020.547 km
Eccentricity
0.00013
Inclination
97.9779°
RAAN
7.7552°
Arg. of periapsis
77.3259°
True anomaly
282.79502°
Mean anomaly
282.81°
Eccentric anomaly
282.80251°
Mean motion
3.68966 °/min
Orbital period
97.57 mins
BSTAR
0.00012958
Loading maneuver chart data...
Computing Atmospheric mass density...
Loading historical data...
Loading historical data...
Loading historical data...
Loading historical data...
Loading historical data...
Loading historical data...
Loading historical data...

Documentation

Showing up to 5 results
|